Hourly Data Report for October 19, 2014

All times are specified in Local Standard Time (LST). Add 1 hour to adjust for Daylight Saving Time where and when it is observed.

RANKIN INLET A
NUNAVUT

62°48'38.000" N
92°06'53.000" W
32.30 m
2303405
71083
YRT

Download Data

Hourly Data (October 2014)
Hourly Data Report for October 19, 2014
Temp Definition
°C
Dew Point Temp Definition
°C
Rel Hum Definition
%
Wind Dir Definition
10's deg

Wind Spd Definition
km/h
Visibility Definition
km
Stn Press Definition
kPa
Hmdx Definition


Wind Chill Definition


Weather Definition


TIME
00:00 Legend Double Dagger -0.1 -1.4 91 17 43 24.1 100.48   -8 Snow
01:00 Legend Double Dagger 0.2 -1.4 89 18 44 24.1 100.41     Snow
02:00 Legend Double Dagger 0.0 -0.9 94 17 39 16.1 100.35   -7 Snow
03:00 Legend Double Dagger 0.2 -0.5 95 17 39 24.1 100.31     Snow
04:00 Legend Double Dagger 0.2 -0.4 96 18 36 9.7 100.30     Snow
05:00 Legend Double Dagger 0.1 -0.5 96 18 28 9.7 100.29     Snow
06:00 Legend Double Dagger 0.2 -0.4 96 18 34 9.7 100.26     Snow
07:00 Legend Double Dagger 0.4 -0.3 95 18 34 6.4 100.27     Snow,Blowing Snow
08:00 Legend Double Dagger 0.4 -0.3 95 18 30 4.8 100.28     Snow
09:00 Legend Double Dagger 0.5 -0.2 95 19 25 12.9 100.30     Snow
10:00 Legend Double Dagger 0.7 -0.3 93 19 26 19.3 100.32     LegendNANA
11:00 Legend Double Dagger 0.7 -0.2 94 19 21 16.1 100.34     Drizzle
12:00 Legend Double Dagger 0.4 -0.2 96 21 22 16.1 100.38     Drizzle
13:00 Legend Double Dagger 0.2 -0.8 93 23 14 24.1 100.39     LegendNANA
14:00 Legend Double Dagger 0.0 -1.1 92 25 16 24.1 100.43   -5 LegendNANA
15:00 Legend Double Dagger -0.1 -1.2 92 25 14 24.1 100.45   -4 Cloudy
16:00 Legend Double Dagger -0.2 -1.2 93 27 10 24.1 100.51   -4 LegendNANA
17:00 Legend Double Dagger -0.4 -1.3 94 29 13 24.1 100.58   -5 LegendNANA
18:00 Legend Double Dagger -0.6 -1.2 96 30 11 24.1 100.63   -4 Snow
19:00 Legend Double Dagger -1.2 -1.8 96 32 13 24.1 100.68   -5 Snow
20:00 Legend Double Dagger -1.1 -1.8 95 32 14 24.1 100.74   -6 Snow
21:00 Legend Double Dagger -1.0 -1.8 94 31 18 24.1 100.77   -6 Snow
22:00 Legend Double Dagger -1.2 -2.2 93 32 22 24.1 100.80   -7 Snow
23:00 Legend Double Dagger -1.3 -2.0 95 32 23 16.1 100.84   -7 Snow

Notes on Data Quality.

Legend

  • E = Estimated
  • M = Missing
  • NA = Not Available
  • ‡ = Partner data that is not subject to review by the National Climate Archives
Date modified: